Regional Weather Roundup
Issued by NWS

Home | Current Version | Previous Version | Graphics & Text | Print | Product List | Glossary On
Versions: 1 2 3 4 5 6 7 8 9 10 11 12 13 14 15 16 17 18 19 20 21 22 23 24 25 26 27 28 29 30 31 32 33 34 35 36 37 38 39 40 41 42 43 44 45 46 47 48 49 50
512
ASUS43 KLOT 262308
RWRIL

ILLINOIS REGIONAL WEATHER ROUNDUP
NATIONAL WEATHER SERVICE CHICAGO/ROMEOVILLE IL
500 PM CST SUN FEB 26 2017

NOTE: "FAIR" INDICATES FEW OR NO CLOUDS BELOW 12,000 FEET WITH NO
SIGNIFICANT WEATHER AND/OR OBSTRUCTIONS TO VISIBILITY.

* THESE STATIONS ARE NOT UNDER NWS QUALITY CONTROL. THEY ALSO MAY NOT
  REPORT WEATHER SUCH AS PRECIPITATION OR FOG.

ILZ001-002-007-009-015-016-024-270000-
NORTHWEST ILLINOIS

CITY           SKY/WX    TMP DP  RH WIND       PRES   REMARKS
MOLINE         CLOUDY    47  28  47 W12       29.94R
STERLING*      PTCLDY    44  32  62 SW7       29.95R
$$

ILZ003-004-008-010-011-017-018-270000-
NORTH CENTRAL ILLINOIS

CITY           SKY/WX    TMP DP  RH WIND       PRES   REMARKS
ROCKFORD       PTCLDY    46  24  42 W10       29.94R
FREEPORT*      CLEAR     44  26  48 W10       29.93S
ROCHELLE*      CLOUDY    43  29  58 SW21      29.95R
DE KALB*       MOCLDY    44  26  48 SW9       29.94S
PERU*          MOCLDY    47  22  37 W14G23    29.97R
$$

ILZ005-006-012>014-019>023-270000-
NORTHEAST ILLINOIS

CITY           SKY/WX    TMP DP  RH WIND       PRES   REMARKS
CHICAGO-OHARE  PTCLDY    48  22  35 SW16G26   29.94R
CHICAGO-MIDWAY PTCLDY    47  19  33 SW18      29.96R
AURORA         PTCLDY    46  23  40 SW10      29.95R
LANSING*       MOCLDY    47  25  42 W14G22    29.98R
JOLIET*        PTCLDY    48  23  36 SW8G17    29.97S
WAUKEGAN       PTCLDY    45  22  40 SW13G22   29.91R
DUPAGE AIRPORT PTCLDY    45  21  38 SW15      29.94R
KANKAKEE*      CLEAR     46  20  36 SW21G28   30.02R
WHEELING       PTCLDY    46  19  34 SW14G26   29.94R
MORRIS*        PTCLDY    46  22  39 SW9G17    29.96S
ROMEOVILLE*    CLEAR     45  26  47 SW10G18   29.96S
NORTHERLY ISL    N/A     47  17  30 SW8         N/A
$$

LMZ740>746-270000-
SOUTHERN LAKE MICHIGAN

STATION/POSITION SKY/WX   TEMP    WIND        PRES    VSBY  WAVE
                          AIR SEA DIR/SP/G                  HT/PER
                          (F)     (DEG/KT/KT) (MB)    (MI)  (FT/S)
HARRISON CRIB              48     230/ 21/ 25   N/A
BURNHAM HARBOR             47     230/  9/ 19   N/A
CALUMET HARBOR             47     220/ 14/ 18 1014.2R
BURNS HARBOR               47     230/ 19/ 27 1015.6R
MICHIGAN CITY              46     200/ 21/ 25   N/A
$$

ILZ025>027-034>036-040-047-049-050-058-095>099-270000-
WEST-CENTRAL ILLINOIS

CITY           SKY/WX    TMP DP  RH WIND       PRES   REMARKS
QUINCY         PTCLDY    46  22  38 S16G23    30.00S
GALESBURG*     CLOUDY    46  30  52 S16       29.96R
MACOMB*        MOCLDY    46  28  50 SW17      30.01R
JACKSONVILLE*  PTCLDY    45  23  42 S10G20    30.04S
PITTSFIELD*    PTCLDY    46  22  39 S7        30.04S
$$

ILZ028>032-037-038-041>044-048-051>054-059>061-270000-
CENTRAL ILLINOIS

CITY           SKY/WX    TMP DP  RH WIND       PRES   REMARKS
PONTIAC        CLEAR     48  20  33 SW20      30.00R
BLOOMINGTON    CLEAR     43  22  43 SW21      30.02R
DECATUR        CLOUDY    44  25  47 SW15      30.07R
PEORIA         CLEAR     46  24  42 SW21G29   30.01R
LACON*         PTCLDY    47  24  40 SW16G22   29.97R
LINCOLN*       CLOUDY    45  27  48 SW14G23   30.04S
SPRINGFIELD    PTCLDY    45  24  43 SW14      30.05S
TAYLORVILLE    CLOUDY    43  24  45 SW13      30.08R
$$

ILZ033-039-045-046-055>057-062-063-270000-
EAST-CENTRAL ILLINOIS

CITY           SKY/WX    TMP DP  RH WIND       PRES   REMARKS
CHAMPAIGN      CLOUDY    45  20  36 SW21      30.07R
RANTOUL*       PTCLDY    46  22  39 SW24      30.05R
MATTOON        CLOUDY    45  22  40 S8        30.08R
PARIS*         CLOUDY    44  23  43 S13       30.10S
$$

ILZ079-100>102-270000-
SOUTHWEST ILLINOIS

CITY           SKY/WX    TMP DP  RH WIND       PRES   REMARKS
ALTON          CLOUDY    45  21  39 S15G24    30.08S
BELLEVILLE     CLOUDY    46  25  44 VRB6      30.08S
CAHOKIA*       CLOUDY    45  28  51 S12G22    30.09S
SPARTA*        CLOUDY    44  28  54 SW9G17    30.12F
$$

ILZ064>066-069>071-074>076-080>082-084>086-088>090-092>094-270000-
SOUTH-CENTRAL ILLINOIS

CITY           SKY/WX    TMP DP  RH WIND       PRES   REMARKS
CARBONDALE     CLOUDY    46  26  45 SW9       30.12F
CAIRO*         CLOUDY    51  23  33 CALM      30.12F
EFFINGHAM*     CLOUDY    46  22  37 S12       30.11S
MARION         CLOUDY    48  23  37 SW12      30.14S
MT. VERNON     CLOUDY    47  22  37 S18       30.12S
CENTRALIA*     CLOUDY    47  25  41 S15G21    30.10S
SALEM*         CLOUDY    48  20  32 S5        30.11R
METROPOLIS*    CLOUDY    51  21  31 CALM      30.13S
$$

ILZ067-068-072-073-078-083-087-091-270000-
SOUTHEAST ILLINOIS

CITY           SKY/WX    TMP DP  RH WIND       PRES   REMARKS
LAWRENCEVILLE  CLOUDY    48  19  31 SW10      30.13S
FLORA*         CLOUDY    49  20  32 S13       30.12S
FAIRFIELD*     CLOUDY    48  22  35 S6        30.12S
HARRISBURG*    CLOUDY    48  25  40 SW5       30.15R
ROBINSON*      CLOUDY    46  20  35 S13       30.13R
CARMI*         CLOUDY    49  21  33 S12G25    30.14R
$$

ABBREVIATIONS USED IN REMARKS
   TC - TEMPERATURE IN CELSIUS
  WCI - WIND CHILL INDEX
   HX - HEAT INDEX
  VSB - VISIBILITY
$$





USA.gov is the U.S. government's official web portal to all federal, state and local government web resources and services.